ONEWEB-0114

Last updated on Mon Jan 18 2021 00:02:03 GMT+0000 (Coordinated Universal Time)

1 47262U 20100E 21017.58334491 -.01409678 00000-0 -15022+0 0 9998 2 47262 87.3329 29.1719 0010064 147.9671 76.2695 14.92486599 1913

Satellite not in orbit